TimePDT,TemperatureF,Dew PointF,Humidity,Sea Level PressureIn,VisibilityMPH,Wind Direction,Wind SpeedMPH,Gust SpeedMPH,PrecipitationIn,Events,Conditions,WindDirDegrees,DateUTC
12:53 AM,80.1,39.0,23,29.62,10.0,Variable,3.5,-,N/A,,Clear,0,2013-09-18 07:53:00
1:53 AM,78.1,39.9,25,29.62,10.0,Calm,Calm,-,N/A,,Clear,0,2013-09-18 08:53:00
2:53 AM,75.0,45.0,34,29.61,10.0,NNW,3.5,-,N/A,,Clear,340,2013-09-18 09:53:00
3:53 AM,73.9,41.0,30,29.60,10.0,Calm,Calm,-,N/A,,Clear,0,2013-09-18 10:53:00
4:53 AM,73.0,43.0,34,29.60,10.0,Calm,Calm,-,N/A,,Clear,0,2013-09-18 11:53:00
5:53 AM,71.1,44.1,38,29.61,10.0,Calm,Calm,-,N/A,,Clear,0,2013-09-18 12:53:00
6:53 AM,71.1,39.9,32,29.64,9.0,Calm,Calm,-,N/A,,Clear,0,2013-09-18 13:53:00
7:53 AM,75.0,42.1,31,29.67,10.0,SW,3.5,-,N/A,,Clear,230,2013-09-18 14:53:00
8:53 AM,81.0,41.0,24,29.68,10.0,Calm,Calm,-,N/A,,Clear,0,2013-09-18 15:53:00
9:53 AM,87.1,36.0,16,29.68,10.0,Calm,Calm,-,N/A,,Clear,0,2013-09-18 16:53:00
10:53 AM,91.9,28.0,10,29.68,10.0,ENE,3.5,-,N/A,,Clear,60,2013-09-18 17:53:00
11:53 AM,93.9,21.9,7,29.67,10.0,ESE,3.5,-,N/A,,Clear,110,2013-09-18 18:53:00
12:53 PM,97.0,19.9,6,29.65,10.0,Calm,Calm,-,N/A,,Clear,0,2013-09-18 19:53:00
1:53 PM,98.1,16.0,5,29.64,10.0,Calm,Calm,-,N/A,,Clear,0,2013-09-18 20:53:00
2:53 PM,99.0,30.0,9,29.62,10.0,NW,9.2,-,N/A,,Clear,310,2013-09-18 21:53:00
3:53 PM,99.0,28.9,8,29.61,10.0,WNW,8.1,-,N/A,,Clear,300,2013-09-18 22:53:00
4:53 PM,99.0,30.0,9,29.60,10.0,NW,11.5,-,N/A,,Clear,310,2013-09-18 23:53:00
5:53 PM,95.0,39.0,14,29.60,10.0,NW,10.4,21.9,N/A,,Clear,320,2013-09-19 00:53:00
6:53 PM,91.0,44.1,20,29.61,10.0,NW,15.0,-,N/A,,Clear,320,2013-09-19 01:53:00
7:53 PM,89.1,48.0,24,29.63,10.0,NW,15.0,-,N/A,,Clear,320,2013-09-19 02:53:00
8:53 PM,86.0,50.0,29,29.66,10.0,NW,11.5,-,N/A,,Clear,310,2013-09-19 03:53:00
9:53 PM,84.0,51.1,32,29.67,7.0,NW,10.4,-,N/A,,Clear,310,2013-09-19 04:53:00
10:53 PM,82.0,51.1,34,29.67,10.0,NW,11.5,-,N/A,,Clear,310,2013-09-19 05:53:00
11:53 PM,81.0,51.1,35,29.67,10.0,NW,13.8,-,N/A,,Clear,320,2013-09-19 06:53:00